TimePDT,TemperatureF,Dew PointF,Humidity,Sea Level PressureIn,VisibilityMPH,Wind Direction,Wind SpeedMPH,Gust SpeedMPH,PrecipitationIn,Events,Conditions,WindDirDegrees,DateUTC
12:15 AM,44.6,42.8,93,29.89,10.0,South,4.6,-,N/A,,Overcast,180,2013-05-22 07:15:00
12:35 AM,44.6,42.8,93,29.89,10.0,South,3.5,-,N/A,,Overcast,190,2013-05-22 07:35:00
12:55 AM,44.6,42.8,93,29.89,10.0,Calm,Calm,-,N/A,,Overcast,0,2013-05-22 07:55:00
1:15 AM,44.6,42.8,93,29.90,10.0,South,3.5,-,N/A,,Overcast,170,2013-05-22 08:15:00
1:35 AM,44.6,41.0,87,29.89,10.0,South,8.1,-,N/A,,Overcast,190,2013-05-22 08:35:00
1:55 AM,44.6,41.0,87,29.89,10.0,SSW,4.6,-,N/A,,Overcast,200,2013-05-22 08:55:00
2:15 AM,44.6,42.8,93,29.90,10.0,SSW,3.5,-,N/A,,Overcast,200,2013-05-22 09:15:00
2:35 AM,44.6,42.8,93,29.90,10.0,WSW,3.5,-,N/A,,Overcast,240,2013-05-22 09:35:00
2:55 AM,44.6,41.0,87,29.91,10.0,South,4.6,-,N/A,,Overcast,180,2013-05-22 09:55:00
3:15 AM,44.6,42.8,93,29.90,10.0,South,8.1,-,N/A,,Overcast,190,2013-05-22 10:15:00
3:35 AM,44.6,41.0,87,29.90,10.0,SSW,6.9,-,N/A,,Overcast,210,2013-05-22 10:35:00
3:55 AM,44.6,41.0,87,29.91,10.0,SSW,8.1,-,N/A,,Overcast,200,2013-05-22 10:55:00
4:15 AM,44.6,41.0,87,29.90,10.0,SW,8.1,-,N/A,,Overcast,220,2013-05-22 11:15:00
4:35 AM,44.6,42.8,93,29.90,5.0,WSW,3.5,-,N/A,,Overcast,240,2013-05-22 11:35:00
4:55 AM,44.6,42.8,93,29.90,5.0,SSW,3.5,-,N/A,,Overcast,210,2013-05-22 11:55:00
5:15 AM,44.6,42.8,93,29.88,6.0,South,4.6,-,0.01,,Overcast,190,2013-05-22 12:15:00
5:35 AM,44.6,41.0,87,29.89,9.0,South,4.6,-,0.01,,Overcast,190,2013-05-22 12:35:00
5:55 AM,44.6,41.0,87,29.89,9.0,SSW,5.8,-,0.01,,Overcast,200,2013-05-22 12:55:00
6:15 AM,44.6,42.8,93,29.89,9.0,SSW,5.8,-,N/A,,Overcast,200,2013-05-22 13:15:00
6:35 AM,44.6,42.8,93,29.89,4.0,SSW,5.8,-,0.01,,Overcast,200,2013-05-22 13:35:00
6:55 AM,44.6,42.8,93,29.88,3.0,SW,5.8,-,0.01,,Overcast,220,2013-05-22 13:55:00
7:15 AM,44.6,42.8,93,29.89,2.5,SSW,4.6,-,0.01,,Overcast,210,2013-05-22 14:15:00
7:35 AM,44.6,42.8,93,29.89,1.8,Calm,Calm,-,0.02,,Overcast,0,2013-05-22 14:35:00
7:55 AM,44.6,42.8,93,29.90,3.0,SW,4.6,-,0.02,,Overcast,220,2013-05-22 14:55:00
8:15 AM,44.6,42.8,93,29.90,3.0,West,3.5,-,0.01,,Overcast,260,2013-05-22 15:15:00
8:35 AM,44.6,42.8,93,29.89,8.0,SW,5.8,-,0.01,,Overcast,220,2013-05-22 15:35:00
8:55 AM,44.6,42.8,93,29.90,10.0,WSW,5.8,-,0.01,,Overcast,240,2013-05-22 15:55:00
9:15 AM,44.6,42.8,93,29.90,10.0,SW,4.6,-,N/A,,Overcast,230,2013-05-22 16:15:00
9:35 AM,44.6,42.8,93,29.90,10.0,SSW,4.6,-,N/A,,Overcast,210,2013-05-22 16:35:00
9:55 AM,44.6,42.8,93,29.90,9.0,SSW,6.9,-,0.01,,Overcast,200,2013-05-22 16:55:00
10:15 AM,46.4,44.6,93,29.90,4.0,South,5.8,-,0.01,,Overcast,180,2013-05-22 17:15:00
10:35 AM,46.4,44.6,93,29.90,10.0,SSW,6.9,-,0.01,,Overcast,200,2013-05-22 17:35:00
10:55 AM,46.4,44.6,93,29.91,10.0,SSW,5.8,-,0.01,,Overcast,200,2013-05-22 17:55:00
11:15 AM,46.4,44.6,93,29.91,9.0,SSW,4.6,-,0.01,,Overcast,200,2013-05-22 18:15:00
11:35 AM,46.4,44.6,93,29.91,7.0,South,4.6,-,0.03,,Overcast,190,2013-05-22 18:35:00
11:55 AM,46.4,44.6,93,29.92,8.0,South,4.6,-,0.05,,Overcast,190,2013-05-22 18:55:00
12:15 PM,46.4,44.6,93,29.92,9.0,South,3.5,-,0.02,,Mostly Cloudy,190,2013-05-22 19:15:00
12:35 PM,46.4,44.6,93,29.91,10.0,SSE,3.5,-,0.03,,Mostly Cloudy,160,2013-05-22 19:35:00
12:55 PM,46.4,44.6,93,29.91,9.0,SSE,3.5,-,0.03,,Overcast,160,2013-05-22 19:55:00
1:15 PM,46.4,44.6,93,29.92,10.0,South,6.9,-,0.01,,Overcast,170,2013-05-22 20:15:00
1:35 PM,48.2,44.6,87,29.93,10.0,SSW,8.1,-,0.01,,Overcast,200,2013-05-22 20:35:00
1:55 PM,48.2,44.6,87,29.93,10.0,South,6.9,-,0.02,,Mostly Cloudy,190,2013-05-22 20:55:00
2:15 PM,48.2,44.6,87,29.93,10.0,SSW,3.5,-,N/A,,Overcast,210,2013-05-22 21:15:00
2:35 PM,48.2,44.6,87,29.92,10.0,SW,4.6,-,N/A,,Overcast,230,2013-05-22 21:35:00
2:55 PM,50.0,44.6,82,29.93,10.0,SSW,4.6,-,N/A,,Overcast,210,2013-05-22 21:55:00
3:15 PM,51.8,42.8,71,29.93,10.0,South,5.8,-,N/A,,Overcast,180,2013-05-22 22:15:00
3:35 PM,50.0,44.6,82,29.92,10.0,South,5.8,-,N/A,,Overcast,170,2013-05-22 22:35:00
3:55 PM,48.2,44.6,87,29.94,10.0,SE,4.6,-,N/A,,Overcast,140,2013-05-22 22:55:00
4:15 PM,48.2,44.6,87,29.93,10.0,South,6.9,-,N/A,,Overcast,170,2013-05-22 23:15:00
4:35 PM,48.2,44.6,87,29.94,6.0,SE,4.6,-,0.01,,Overcast,140,2013-05-22 23:35:00
4:55 PM,48.2,46.4,93,29.94,9.0,SSE,4.6,-,0.03,,Mostly Cloudy,150,2013-05-22 23:55:00
5:15 PM,48.2,44.6,87,29.94,10.0,SSE,4.6,-,N/A,,Overcast,150,2013-05-23 00:15:00
5:35 PM,50.0,44.6,82,29.94,10.0,SSE,5.8,-,0.01,,Overcast,160,2013-05-23 00:35:00
5:55 PM,50.0,46.4,87,29.94,10.0,South,8.1,-,0.01,,Overcast,180,2013-05-23 00:55:00
6:15 PM,48.2,44.6,87,29.95,10.0,South,6.9,-,N/A,,Overcast,180,2013-05-23 01:15:00
6:35 PM,48.2,44.6,87,29.95,10.0,South,6.9,-,N/A,,Overcast,190,2013-05-23 01:35:00
6:55 PM,48.2,44.6,87,29.95,10.0,South,8.1,-,N/A,,Overcast,170,2013-05-23 01:55:00
7:15 PM,46.4,42.8,87,29.95,10.0,South,6.9,-,N/A,,Scattered Clouds,190,2013-05-23 02:15:00
7:35 PM,46.4,42.8,87,29.96,10.0,SSE,4.6,-,N/A,,Mostly Cloudy,160,2013-05-23 02:35:00
7:55 PM,46.4,42.8,87,29.96,10.0,South,6.9,-,N/A,,Mostly Cloudy,190,2013-05-23 02:55:00
8:15 PM,46.4,42.8,87,29.96,10.0,SSW,3.5,-,N/A,,Mostly Cloudy,200,2013-05-23 03:15:00
8:35 PM,46.4,42.8,87,29.96,10.0,SSE,3.5,-,N/A,,Mostly Cloudy,160,2013-05-23 03:35:00
8:55 PM,46.4,42.8,87,29.96,10.0,Calm,Calm,-,N/A,,Overcast,0,2013-05-23 03:55:00
9:15 PM,44.6,42.8,93,29.96,10.0,Calm,Calm,-,N/A,,Mostly Cloudy,0,2013-05-23 04:15:00
9:35 PM,44.6,42.8,93,29.95,10.0,Calm,Calm,-,N/A,,Partly Cloudy,0,2013-05-23 04:35:00
9:55 PM,44.6,42.8,93,29.95,10.0,Calm,Calm,-,N/A,,Scattered Clouds,0,2013-05-23 04:55:00
10:15 PM,44.6,42.8,93,29.96,10.0,Calm,Calm,-,N/A,,Partly Cloudy,0,2013-05-23 05:15:00
10:35 PM,42.8,41.0,93,29.97,10.0,Calm,Calm,-,N/A,,Partly Cloudy,0,2013-05-23 05:35:00
10:55 PM,42.8,41.0,93,29.97,10.0,Calm,Calm,-,N/A,,Partly Cloudy,0,2013-05-23 05:55:00
11:15 PM,42.8,41.0,93,29.97,10.0,Calm,Calm,-,N/A,,Clear,0,2013-05-23 06:15:00
11:35 PM,42.8,39.2,87,29.97,10.0,Calm,Calm,-,N/A,,Clear,0,2013-05-23 06:35:00
11:55 PM,41.0,39.2,93,29.96,5.0,Calm,Calm,-,N/A,,Clear,0,2013-05-23 06:55:00